Radiation Dose at Monitoring Post of Fukushima Daini Nuclear Power Station
Date,Time,MP-1(microSv/h),MP-2(microSv/h),MP-3(microSv/h),MP-4(microSv/h),MP-5(microSv/h),MP-6(microSv/h),MP-7(microSv/h),Wind Direction,Wind Velocity(m/s),Rain
2014/08/29,00:00,0.633,0.434,0.670,0.609,0.606,0.270,0.236,south-southwest,2.3,No
2014/08/29,00:10,0.633,0.434,0.669,0.609,0.605,0.273,0.233,south-southwest,1.9,No
2014/08/29,00:20,0.634,0.436,0.669,0.609,0.606,0.270,0.233,south-southwest,2.3,No
2014/08/29,00:30,0.633,0.435,0.669,0.608,0.606,0.271,0.234,south-southwest,2.4,No
2014/08/29,00:40,0.633,0.435,0.670,0.609,0.607,0.269,0.231,south-southwest,2.3,No
2014/08/29,00:50,0.634,0.434,0.671,0.608,0.605,0.269,0.234,south-southwest,2.4,No
2014/08/29,01:00,0.634,0.436,0.668,0.609,0.607,0.271,0.232,south-southwest,3.0,No
2014/08/29,01:10,0.633,0.435,0.668,0.608,0.607,0.269,0.234,southwest,2.8,No
2014/08/29,01:20,0.634,0.432,0.669,0.606,0.606,0.271,0.230,southwest,2.2,No
2014/08/29,01:30,0.633,0.434,0.670,0.607,0.605,0.271,0.232,southwest,1.8,No
2014/08/29,01:40,0.635,0.434,0.671,0.606,0.606,0.270,0.233,southwest,1.6,No
2014/08/29,01:50,0.634,0.435,0.669,0.606,0.605,0.271,0.232,south-southwest,0.6,No
2014/08/29,02:00,0.635,0.436,0.667,0.607,0.607,0.271,0.233,southwest,0.9,No
2014/08/29,02:10,0.633,0.436,0.667,0.607,0.608,0.271,0.233,southwest,1.2,No
2014/08/29,02:20,0.633,0.438,0.670,0.607,0.607,0.272,0.235,east-northeast,1.1,No
2014/08/29,02:30,0.633,0.435,0.670,0.609,0.607,0.271,0.232,east-northeast,1.9,No
2014/08/29,02:40,0.634,0.437,0.668,0.609,0.608,0.272,0.235,east-northeast,2.1,No
2014/08/29,02:50,0.633,0.437,0.667,0.608,0.605,0.270,0.232,northeast,2.0,No
2014/08/29,03:00,0.634,0.437,0.671,0.609,0.606,0.271,0.233,northeast,2.2,No
2014/08/29,03:10,0.632,0.436,0.670,0.608,0.607,0.271,0.233,northeast,1.6,No
2014/08/29,03:20,0.634,0.437,0.670,0.609,0.607,0.271,0.233,northeast,1.8,No
2014/08/29,03:30,0.634,0.436,0.672,0.610,0.609,0.271,0.234,north-northeast,1.4,No
2014/08/29,03:40,0.633,0.437,0.669,0.608,0.608,0.270,0.233,north-northeast,1.4,No
2014/08/29,03:50,0.635,0.436,0.670,0.610,0.608,0.271,0.233,north,1.5,No
2014/08/29,04:00,0.635,0.436,0.671,0.610,0.609,0.271,0.232,north,1.4,No
2014/08/29,04:10,0.635,0.437,0.668,0.608,0.609,0.272,0.233,north,1.5,Yes
2014/08/29,04:20,0.635,0.438,0.671,0.608,0.608,0.270,0.233,north,1.5,Yes
2014/08/29,04:30,0.632,0.436,0.670,0.609,0.608,0.271,0.233,north-northeast,1.5,No
2014/08/29,04:40,0.635,0.437,0.672,0.609,0.608,0.272,0.235,north,1.5,Yes
2014/08/29,04:50,0.633,0.436,0.669,0.609,0.607,0.270,0.232,north,2.2,No
2014/08/29,05:00,0.636,0.436,0.669,0.609,0.607,0.272,0.232,north,1.5,No
2014/08/29,05:10,0.633,0.437,0.671,0.609,0.608,0.271,0.234,north,1.9,No
2014/08/29,05:20,0.633,0.437,0.670,0.610,0.608,0.270,0.232,northwest,1.9,No
2014/08/29,05:30,0.634,0.436,0.671,0.609,0.607,0.272,0.234,northwest,1.9,No
2014/08/29,05:40,0.633,0.436,0.669,0.608,0.609,0.270,0.231,north-northwest,2.0,No
2014/08/29,05:50,0.635,0.436,0.670,0.609,0.607,0.271,0.234,west-northwest,1.9,No
2014/08/29,06:00,0.633,0.436,0.671,0.609,0.608,0.271,0.233,west-northwest,1.8,No
2014/08/29,06:10,0.632,0.437,0.669,0.609,0.606,0.271,0.233,west-northwest,1.5,No
2014/08/29,06:20,0.634,0.436,0.671,0.609,0.608,0.272,0.233,northwest,1.6,No
2014/08/29,06:30,0.633,0.437,0.670,0.608,0.606,0.269,0.231,northwest,1.6,No
2014/08/29,06:40,0.635,0.436,0.669,0.609,0.609,0.272,0.234,northwest,1.4,No
2014/08/29,06:50,0.635,0.437,0.671,0.607,0.608,0.270,0.232,west,1.1,No
2014/08/29,07:00,0.637,0.438,0.671,0.608,0.610,0.271,0.231,west,0.9,No
2014/08/29,07:10,0.636,0.437,0.671,0.611,0.609,0.271,0.234,west-southwest,0.7,No
2014/08/29,07:20,0.637,0.438,0.671,0.609,0.609,0.269,0.234,-,CALM,No
2014/08/29,07:30,0.635,0.436,0.671,0.611,0.608,0.271,0.231,-,CALM,No
2014/08/29,07:40,0.636,0.436,0.672,0.611,0.609,0.271,0.232,-,CALM,No
2014/08/29,07:50,0.637,0.438,0.670,0.611,0.610,0.270,0.231,southwest,1.4,No
2014/08/29,08:00,0.638,0.438,0.670,0.614,0.611,0.269,0.231,south,0.9,No
2014/08/29,08:10,0.639,0.440,0.671,0.615,0.609,0.271,0.231,southeast,1.0,No
2014/08/29,08:20,0.639,0.440,0.674,0.618,0.613,0.271,0.232,east-southeast,1.1,No
2014/08/29,08:30,0.639,0.442,0.676,0.618,0.611,0.271,0.231,east-southeast,1.4,No
2014/08/29,08:40,0.642,0.444,0.674,0.620,0.611,0.269,0.232,south-southeast,1.1,No
2014/08/29,08:50,0.641,0.443,0.675,0.624,0.611,0.270,0.232,east-southeast,1.3,No
2014/08/29,09:00,0.644,0.443,0.675,0.623,0.611,0.271,0.231,east,1.1,No
2014/08/29,09:10,0.643,0.443,0.674,0.625,0.611,0.271,0.233,east-northeast,1.0,No
2014/08/29,09:20,0.644,0.442,0.674,0.625,0.612,0.271,0.233,southeast,1.1,No
2014/08/29,09:30,0.648,0.441,0.677,0.625,0.613,0.270,0.233,southeast,1.4,No
2014/08/29,09:40,0.644,0.441,0.675,0.622,0.612,0.272,0.231,south-southeast,1.3,No
2014/08/29,09:50,0.647,0.443,0.676,0.627,0.611,0.272,0.232,east-southeast,1.3,No
2014/08/29,10:00,0.647,0.442,0.678,0.627,0.612,0.273,0.233,east-southeast,1.4,No
2014/08/29,10:10,0.648,0.444,0.678,0.627,0.613,0.272,0.234,southeast,1.2,No
2014/08/29,10:20,0.646,0.441,0.679,0.626,0.613,0.270,0.233,southeast,1.0,No
2014/08/29,10:30,0.649,0.443,0.679,0.624,0.612,0.271,0.232,east-southeast,1.4,No
2014/08/29,10:40,0.648,0.443,0.678,0.627,0.614,0.273,0.234,east-southeast,2.4,No
2014/08/29,10:50,0.648,0.442,0.678,0.626,0.611,0.271,0.234,east,1.7,No
2014/08/29,11:00,0.648,0.443,0.677,0.627,0.611,0.271,0.234,east-southeast,1.6,No
2014/08/29,11:10,0.650,0.444,0.678,0.626,0.613,0.272,0.234,east-southeast,1.9,No
2014/08/29,11:20,0.650,0.445,0.677,0.629,0.613,0.272,0.236,east-southeast,1.4,No
2014/08/29,11:30,0.650,0.446,0.676,0.632,0.614,0.273,0.234,east-southeast,1.4,No
2014/08/29,11:40,0.647,0.445,0.679,0.631,0.616,0.273,0.234,east,1.1,Yes
2014/08/29,11:50,0.646,0.444,0.678,0.631,0.615,0.273,0.236,east-southeast,1.6,No
2014/08/29,12:00,0.646,0.446,0.677,0.634,0.613,0.273,0.233,east-southeast,2.2,No
2014/08/29,12:10,0.646,0.446,0.677,0.635,0.614,0.273,0.234,southeast,1.6,No
2014/08/29,12:20,0.646,0.446,0.678,0.633,0.616,0.273,0.234,east-southeast,1.6,No
2014/08/29,12:30,0.646,0.444,0.677,0.631,0.615,0.274,0.234,east-southeast,1.8,No
2014/08/29,12:40,0.646,0.444,0.677,0.630,0.613,0.273,0.234,east,2.1,No
2014/08/29,12:50,0.648,0.445,0.678,0.630,0.614,0.273,0.236,southeast,1.9,No
2014/08/29,13:00,0.648,0.445,0.680,0.630,0.614,0.273,0.234,southeast,1.6,No
2014/08/29,13:10,0.646,0.445,0.679,0.630,0.612,0.273,0.235,east-southeast,1.5,No
2014/08/29,13:20,0.648,0.444,0.677,0.628,0.613,0.274,0.234,south-southeast,1.5,No
2014/08/29,13:30,0.648,0.445,0.680,0.629,0.611,0.274,0.234,southeast,1.6,No
2014/08/29,13:40,0.648,0.444,0.679,0.630,0.612,0.273,0.234,southeast,1.9,No
2014/08/29,13:50,0.647,0.443,0.678,0.629,0.615,0.274,0.235,southeast,2.4,No
2014/08/29,14:00,0.648,0.445,0.678,0.629,0.614,0.274,0.235,east-southeast,1.9,No
2014/08/29,14:10,0.647,0.445,0.678,0.628,0.614,0.273,0.234,south-southeast,1.8,No
2014/08/29,14:20,0.646,0.445,0.681,0.630,0.613,0.274,0.234,southeast,2.1,No
2014/08/29,14:30,0.649,0.445,0.680,0.632,0.613,0.275,0.235,east-southeast,3.4,No
2014/08/29,14:40,0.649,0.445,0.680,0.630,0.612,0.274,0.235,east-southeast,2.4,No
2014/08/29,14:50,0.646,0.445,0.679,0.631,0.611,0.273,0.234,east-southeast,2.3,No
2014/08/29,15:00,0.645,0.445,0.680,0.630,0.611,0.273,0.235,east,2.2,No
2014/08/29,15:10,0.645,0.446,0.681,0.627,0.612,0.274,0.234,east-southeast,1.5,No
2014/08/29,15:20,0.645,0.445,0.680,0.628,0.613,0.274,0.237,east,1.8,No
2014/08/29,15:30,0.648,0.445,0.680,0.629,0.611,0.274,0.237,east,1.8,No
2014/08/29,15:40,0.648,0.444,0.677,0.628,0.612,0.274,0.237,east-southeast,1.1,No
2014/08/29,15:50,0.647,0.445,0.677,0.626,0.613,0.275,0.235,east-southeast,0.9,No
2014/08/29,16:00,0.645,0.445,0.680,0.623,0.613,0.274,0.236,east-southeast,1.2,No
2014/08/29,16:10,0.648,0.444,0.676,0.623,0.612,0.273,0.238,east,1.2,No
2014/08/29,16:20,0.646,0.443,0.675,0.626,0.612,0.274,0.235,-,CALM,No
2014/08/29,16:30,0.646,0.444,0.676,0.626,0.612,0.274,0.236,east,0.9,No
2014/08/29,16:40,0.647,0.443,0.678,0.624,0.612,0.277,0.237,-,CALM,No
2014/08/29,16:50,0.647,0.443,0.677,0.623,0.614,0.276,0.236,-,CALM,No
2014/08/29,17:00,0.645,0.443,0.677,0.625,0.610,0.274,0.234,-,CALM,No
2014/08/29,17:10,0.645,0.443,0.678,0.625,0.611,0.273,0.237,-,CALM,No
2014/08/29,17:20,0.647,0.443,0.676,0.627,0.610,0.274,0.237,east-northeast,0.7,No
2014/08/29,17:30,0.646,0.443,0.675,0.626,0.611,0.274,0.235,east-southeast,1.0,No
2014/08/29,17:40,0.648,0.444,0.674,0.627,0.612,0.274,0.236,northeast,0.6,No
2014/08/29,17:50,0.647,0.445,0.675,0.627,0.610,0.274,0.237,northeast,1.0,No
2014/08/29,18:00,0.647,0.444,0.676,0.627,0.610,0.274,0.235,east,0.7,No
2014/08/29,18:10,0.648,0.443,0.676,0.625,0.609,0.274,0.236,east-southeast,0.9,No
2014/08/29,18:20,0.645,0.443,0.676,0.621,0.607,0.274,0.236,-,CALM,No
2014/08/29,18:30,0.644,0.442,0.678,0.623,0.609,0.275,0.236,east,1.0,No
2014/08/29,18:40,0.644,0.443,0.678,0.623,0.611,0.274,0.237,-,CALM,No
2014/08/29,18:50,0.644,0.443,0.677,0.625,0.611,0.275,0.236,northeast,0.5,No
2014/08/29,19:00,0.645,0.442,0.677,0.624,0.608,0.273,0.235,northeast,0.7,No
2014/08/29,19:10,0.647,0.442,0.675,0.622,0.609,0.276,0.238,north-northeast,0.7,No
2014/08/29,19:20,0.644,0.442,0.678,0.620,0.608,0.273,0.235,north-northeast,0.8,No
2014/08/29,19:30,0.643,0.444,0.680,0.623,0.610,0.274,0.236,north-northeast,0.8,No
2014/08/29,19:40,0.642,0.442,0.678,0.623,0.610,0.275,0.236,north-northeast,0.7,No
2014/08/29,19:50,0.644,0.444,0.679,0.623,0.610,0.273,0.236,north,0.6,No
2014/08/29,20:00,0.645,0.440,0.677,0.624,0.610,0.275,0.238,north-northwest,0.7,No
2014/08/29,20:10,0.643,0.442,0.677,0.620,0.611,0.274,0.237,north,0.7,No
2014/08/29,20:20,0.641,0.442,0.677,0.620,0.609,0.274,0.237,north-northwest,1.2,No
2014/08/29,20:30,0.640,0.441,0.677,0.620,0.612,0.275,0.238,north,1.4,No
2014/08/29,20:40,0.640,0.441,0.676,0.621,0.611,0.274,0.235,north,1.9,No
2014/08/29,20:50,0.644,0.440,0.678,0.622,0.612,0.275,0.238,north,1.3,No
2014/08/29,21:00,0.642,0.441,0.675,0.618,0.610,0.273,0.236,north,1.8,No
2014/08/29,21:10,0.641,0.442,0.675,0.619,0.609,0.273,0.237,north,2.4,No
2014/08/29,21:20,0.642,0.440,0.676,0.617,0.611,0.276,0.237,north,1.5,No
2014/08/29,21:30,0.642,0.440,0.679,0.619,0.609,0.274,0.237,north,2.2,No
2014/08/29,21:40,0.642,0.440,0.677,0.619,0.609,0.275,0.238,north,2.0,No
2014/08/29,21:50,0.642,0.440,0.677,0.619,0.608,0.275,0.236,north,2.6,No
2014/08/29,22:00,0.638,0.440,0.675,0.618,0.610,0.276,0.238,north,2.7,No
2014/08/29,22:10,0.638,0.441,0.676,0.616,0.610,0.275,0.236,north,3.1,No
2014/08/29,22:20,0.639,0.438,0.676,0.617,0.613,0.274,0.237,north,3.7,No
2014/08/29,22:30,0.639,0.440,0.676,0.618,0.611,0.275,0.237,north-northwest,3.7,No
2014/08/29,22:40,0.640,0.439,0.677,0.615,0.609,0.274,0.237,north-northwest,3.6,Yes
2014/08/29,22:50,0.641,0.439,0.678,0.618,0.607,0.275,0.237,north,3.9,Yes
2014/08/29,23:00,0.639,0.439,0.677,0.616,0.608,0.274,0.237,north,4.0,No
2014/08/29,23:10,0.639,0.441,0.676,0.615,0.609,0.273,0.238,north,3.9,No
2014/08/29,23:20,0.638,0.440,0.676,0.615,0.610,0.274,0.235,north,4.2,No
2014/08/29,23:30,0.639,0.440,0.676,0.616,0.611,0.274,0.237,north,4.5,No
2014/08/29,23:40,0.638,0.440,0.675,0.616,0.611,0.274,0.237,north,4.8,No
2014/08/29,23:50,0.640,0.439,0.676,0.614,0.611,0.274,0.236,north-northwest,4.2,No
